Flag for Norway Weather past 2 weeks in Drammen, Norway

Now
54 °F

Overcast.


Feels Like: 46 °F
Forecast: 51 / 56 °F
Wind: 36 mph from Northeast

Location: Oslo / Fornebu

Current Time: Sep 1, 2015 at 6:44:35 PM

Latest Report: Sep 1, 2015 at 5:50 PM


Visibility: N/A

Pressure: 29.98 "Hg

Humidity: 82%

Dew point: 48 °F

Location of DrammenLocation

Historic Weather in Drammen — Graph

°F

Drammen temperature yesterday

Maximum temperature yesterday: 61 °F (at 12:50 PM)
Minimum temperature yesterday: 55 °F (at 3:20 AM)
Average temperature yesterday: 57 °F

Past Weeks' High & Low Weather Summary

 TemperatureHumidityPressure
High70 °F (Aug 24, 5:20 AM)100% (Aug 17, 5:20 PM)30.18 "Hg (Aug 17, 5:20 PM)
Low54 °F (Sep 1, 7:50 AM)46% (Aug 18, 7:20 PM)29.33 "Hg (Aug 26, 11:50 PM)
Average59 °F85%29.88 "Hg
* Reported Aug 17 5:20 PM — Sep 1 5:20 PM, Drammen, Weather by CustomWeather, © 2015

Note: Actual official high and low records may vary slightly from our data, if they occured in-between our weather recording intervals... More about our weather records

Advertising

Drammen weather history for previous 24 hours

 ConditionsComfort  
Time TempWeatherWind HumidityBarometerVisibility
5:20 PM
Tue, Sep 1
55 °FPartly sunny.36 mph77%29.98 "HgN/A
4:50 PM54 °FPartly sunny.35 mph77%30.01 "HgN/A
4:20 PM54 °FPartly sunny.33 mph77%30.01 "HgN/A
3:50 PM54 °FPartly sunny.33 mph77%30.01 "HgN/A
3:20 PM54 °FOvercast.33 mph82%30.01 "HgN/A
2:50 PM54 °FPartly sunny.36 mph88%30.01 "HgN/A
2:20 PM54 °FPartly sunny.37 mph82%30.01 "HgN/A
1:50 PM54 °FPartly sunny.37 mph82%29.98 "HgN/A
1:20 PM54 °FPartly sunny.36 mph82%30.01 "HgN/A
12:50 PM54 °FPartly sunny.36 mph82%30.01 "HgN/A
12:20 PM54 °FPartly sunny.36 mph82%30.01 "HgN/A
11:50 AM54 °FPartly sunny.36 mph88%29.98 "HgN/A
11:20 AM54 °FPartly sunny.37 mph88%29.98 "HgN/A
10:50 AM55 °FPartly sunny.36 mph88%30.01 "HgN/A
10:20 AM55 °FPartly sunny.35 mph82%29.98 "HgN/A
9:50 AM55 °FPartly sunny.35 mph88%29.98 "HgN/A
9:20 AM55 °FPassing clouds.32 mph82%29.98 "HgN/A
8:50 AM55 °FCool.N/A82%29.98 "HgN/A
8:20 AM55 °FScattered clouds.32 mph82%29.98 "HgN/A
7:50 AM54 °FPassing clouds.31 mph94%29.98 "HgN/A
7:20 AM55 °FPartly sunny.30 mph88%29.98 "HgN/A
6:50 AM55 °FPassing clouds.31 mph88%29.98 "HgN/A
5:20 AM55 °FPassing clouds.26 mph94%30.01 "HgN/A
4:50 AM55 °FPassing clouds.25 mph94%30.01 "HgN/A
4:20 AM55 °FPassing clouds.25 mph94%30.01 "HgN/A
3:50 AM55 °FPassing clouds.23 mph94%30.01 "HgN/A
3:20 AM55 °FCool.22 mph94%30.01 "HgN/A
2:50 AM55 °FCool.21 mph100%30.01 "HgN/A
2:20 AM57 °FCool.18 mph88%30.01 "HgN/A
1:50 AM55 °FCool.20 mph94%30.01 "HgN/A
1:20 AM55 °FCool.20 mph94%30.04 "HgN/A
12:50 AM55 °FPassing clouds.21 mph94%30.04 "HgN/A
11:50 PM
Mon, Aug 31
57 °FCool.18 mph94%30.04 "HgN/A
11:20 PM55 °FCool.17 mph94%30.04 "HgN/A
10:50 PM57 °FCool.15 mph88%30.04 "HgN/A
10:20 PM55 °FCool.14 mph94%30.04 "HgN/A
9:50 PM55 °FCool.14 mph94%30.04 "HgN/A
9:20 PM55 °FScattered clouds.13 mph94%30.04 "HgN/A
8:50 PM55 °FPassing clouds.13 mph94%30.04 "HgN/A
8:20 PM55 °FPartly sunny.12 mph94%30.04 "HgN/A
7:50 PM55 °FPartly sunny.10 mph100%30.04 "HgN/A
7:20 PM57 °FScattered clouds.9 mph88%30.04 "HgN/A
6:50 PM57 °FPartly sunny.9 mph88%30.04 "HgN/A
6:20 PM59 °FPartly sunny.8 mph82%30.04 "HgN/A
Weather by CustomWeather, © 2015

See weather overviewHow to use our weather pages